Location: Asheville, NC
(35.6000°N, 82.5500°W)
Time: 20:43:53
(UTC-04:00)

Vanguard 1 Rocket - Pass Details

Date: 10 December 2017
Orbit: 653 x 4224 km, 34.3° (Epoch: 22 June)

Event Time Altitude Azimuth Distance (km) Brightness Sun altitude
Rises 18:27:45 0° 247° (WSW) 4,635 13.0 -14.0°
Reaches altitude 10° 18:30:11 10° 245° (WSW) 3,969 12.1 -14.5°
Maximum altitude 18:41:32 76° 162° (SSE) 2,690 9.7 -16.7°
Enters shadow 18:57:04 23° 83° (E) 5,674 10.8 -19.7°
Drops below altitude 10° 19:03:41 10° 81° (E) 7,112 - -21.0°
Sets 19:09:55 0° 81° (E) 8,371 - -22.2°
